Погода Марьина Горка

Погода Марьина Горка : погода сейчас, прогноз погоды и архив. Всё, что Вы хотите узнать о погоде Марьина Горка!

Хотите узнать прогноз погоды Марьина Горка? Тогда Вам сюда: Погода Марьина Горка

Поиск расширенной информации на нашем сайте:

Другие новости

Новости СМИ2

Главная страница сайта

Новости сайта

03.07.2017

Напоминаем, что на нашем специализированном сайте Метеоцентр.Азия вы можете получить высокодетализированные автоматические прогнозы погоды по пунктам России, СНГ и мира в авиационном формате (включающие направление и скорость ветра, видимость, явления погоды, количество и форму облачности, нижнюю и верхнюю границу облачности).


Погода Марьина Горка - сегодня

Время (UTC), дата Ветер
(°,м/с) 
Видим.   Явления Облачность Т
(°С)
Тd
(°С)
f(%) Тe
(°С)
Pmin
(гПа)
dP
(гПа)
Po
(мм)
O2
(г/м3)
Тmin Tmax R s Состояние
почвы
15 14.08.18 120 (ЮВ) 25000 м    8/0 верхняя 
[Ci fib]
+28.2 +12.6 38 +33  1010  -1.3  743  269           
18 14.08.18 110 (В) 20000 м    9/4 2000 м средняя, верхняя 
[Ac und|Ci fib]
+23.1 +14.7 59 +32  1010.2  -0.1  743  273    +30.2       
21 14.08.18 310 (СЗ) 2{11}  16000 м  гроза без осадков  9/6 600 м кучево-дожд., средняя 
[Cb cap|Ac und]
+21.8 +16.1 70 +33  1010.3  743  274           
00 15.08.18 тихо ()   10 км  {гроза}  9/3 600 м средняя 
[Sc|Ac und]
+18.5 +16.8 90 +31  1009.7  -0.8  742  276           
03 15.08.18 240 (ЮЗ) 6000 м  дымка  9/9 2000 м средняя 
[Ac und]
+17.6 +16.8 95 +31  1010.7  0.9  743  277           
06 15.08.18 280 (З) 10 км    9/8 600 м средняя 
[Sc|Ac und]
+19.4 +17.2 87 +33  1011.4  0.8  743  276  +17.5         
09 15.08.18 300 (СЗ) 17000 м    9/5 600 м средняя, верхняя 
[Cu Sc|Ac und|Ci fib]
+23.2 +16.7 67 +35  1012.2  1.1  744  273           
12 15.08.18 260 (З) 20000 м    9/6 600 м средняя, верхняя 
[Cu med, cong|Ac und|Cs]
+24.3 +15.2 57 +34  1012.8  0.6  744  272           
15 15.08.18 270 (З) 22000 м    9/3 600 м средняя, верхняя 
[Cu med, cong|Ac und|Cs]
+25.5 +14 49 +33  1012.7  744  272           
18 15.08.18 тихо ()   17000 м    9/3 600 м средняя, верхняя 
[Sc|Ac und|Cs]
+20.5 +15.7 74 +31  1014  745  276    +25.8       
21 15.08.18 270 (З) 15000 м    3/3 2000 м средняя 
[Ac und]
+18.2 +14.9 81 +29  1015.2  746  279           
00 16.08.18 240 (ЮЗ) 7000 м  дымка  6/6 2000 м средняя 
[Ac und]
+15.7 +14.7 94 +25  1016.2  0.8  747  281           
03 16.08.18 270 (З) 5000 м  дымка  8/5 2000 м средняя, верхняя 
[Ac und|Cs]
+15.2 +14.7 97 +25  1016.9  0.6  747  282           
06 16.08.18 340 (С) 4200 м  дымка  10/10 210 м 
[St]
+16.8 +16.3 97 +29  1018.2  1.4  748  280  +15.1         
09 16.08.18 310 (СЗ) 10 км    9/9 540 м 
[Cu Sc]
+20.7 +16.7 78 +33  1018.4  0.5  748  277           
12 16.08.18 330 (СЗ) 15000 м    9/6 600 м средняя 
[Cu Sc|Ac und]
+21.8 +15.6 68 +32  1019.1  0.7  749  276           
15 16.08.18 360 (С) 20000 м    4/3 600 м средняя 
[Cu med, cong|Ac und]
+23.6 +14.9 58 +32  1018.4  -0.5  749  275           
18 16.08.18 тихо ()   14000 м    3/3 2000 м средняя, верхняя 
[Ac und|Ci fib]
+19.3 +15.8 80 +29  1019.4  0.7  749  279    +24.1       
21 16.08.18 тихо ()   7000 м  дымка  ясно 
+15.8 +15 95 +24  1020.3  0.6  750  282           
00 17.08.18 тихо ()   4500 м  дымка  ясно 
+13.9 +13.6 98 +20  1020.9  0.4  750  285           
06 17.08.18 070 (В) 2800 м  дымка  ясно 
+16.7 +16.5 99 +29  1021.2  0.2  750  281  +12.1         
09 17.08.18 100 (В) 20000 м    8/8 600 м 
[Cu med, cong]
+23.9 +17.2 66 +37  1020.2  -0.4  750  274           
12 17.08.18 120 (ЮВ) 23000 м    8/8 600 м 
[Cu med, cong]
+25.4 +15.4 54 +35  1019.4  -0.7  749  273           
15 17.08.18 110 (В) 25000 м    3/3 600 м 
[Cu med, cong]
+26.3 +15.1 50 +35  1018.3  -1  749  272           
18 17.08.18 230 (ЮЗ) 16000 м    9/8 600 м средняя 
[Sc|Ac und]
+21.3 +17.1 77 +34  1019.1  0.4  749  276    +27.3       
Время (UTC), дата Ветер
(°,м/с) 
Видим.   Явления Облачность Т
(°С)
Тd
(°С)
f(%) Тe
(°С)
Pmin
(гПа)
dP
(гПа)
Po
(мм)
O2
(г/м3)
Тmin Tmax R s Состояние
почвы

Для получения пояснительной информации подведите курсор к названию столбца.

ПОГОДА Марьина Горка - архив

Всё, что Вы хотите узнать о погоде Марьина Горка - удобно и подробно!

Выберите нужную дату (начиная с 1 января 2015* года) и нажмите кнопку "Найти".
Будут отображены архивные сводки погоды по пункту Марьина Горка, начиная с указанной даты.


Отображать данные в формате CSV (для использования в таблицах Excel)


Внимание! Наш архив погоды предназначен исключительно для личного некоммерческого использования в познавательных целях. Если Вам необходимы официальные справки о состоянии погоды (для производственных, юридических, коммерческих и т.п. целей), обращайтесь в органы Росгидромета.

*Примечание: данная дата относится к архиву по метеостанциям СССР (Россия, СНГ, Балтия).
Архив по метеостанциям Зарубежной Европы и Азии (кроме Китая) хранится 10 дней, по другим регионам земного шара (Китай, Африка, Америка, Австралия, Океания) - 1 день.

Марьина Горка - район местоположения метеостанции


Название, широта, долгота, высота метеостанции:
Марьина Горка 55.4°ш. 28.1°д. 177 м над ур. моря [Беларусь]

Дополнительная информация

В oтличие oт бoльшинства пoгoдных сайтoв мы публикуем пoдрoбную метеoинфoрмацию в детальнoм прoфессиoнальнoм фoрмате.

Характеристики температуры и влажнoсти вoздуха измеряются на высoте 2 м в тени вдали oт зданий и деревьев.
Скoрoсть ветра измеряется на высoте 10 м (на урoвне рoста челoвека скoрoсть ветра ниже в 1.5-2 раза). Если метеoстанция нахoдится в гoрoде или в лесу, тo скoрoсть ветра занижена на 2-4 м/с пo сравнению с oткрытым местoм. Скoрoсть ветра над акватoриями крупных рек и oзёр, а также на вершинах хoлмoв на 2-5 м/с выше, чем в oбычных услoвиях.
Атмoсфернoе давление в разных тoчках местнoсти мoжет значительнo oтличаться oт давления на метеoстанции, в зависимoсти oт услoвий рельефа (при пoдъёме на 10 м давление пoнижается примернo на 1 мм рт.ст.).